QPF
0.00 0.01 0.01 0.02 0.02 0.01 0.01 0.00 0.02 0.03 0.03 0.03 0.02 0.01 0.01 0.01 0.00 0.00 0.01 0.00 0.01 0.02 0.02 0.02 0.01 0.02 0.01 0.01 0.01 0.02 0.01 0.02 0.02 0.03 0.03 0.04 0.03 0.03 0.02 0.02 0.03 0.03 0.03 0.03
0.00 0.00 0.01 0.01 0.02 0.02 0.02 0.02 0.03 0.03 0.03 0.03 0.02 0.02 0.01 0.00 0.00 0.00 0.00 0.01 0.01 0.02 0.03 0.02 0.02 0.02 0.01 0.01 0.02 0.02 0.03 0.02 0.03 0.03 0.04 0.04 0.04 0.04 0.04 0.03 0.03 0.03 0.03 0.02
0.01 0.00 0.01 0.02 0.02 0.02 0.03 0.03 0.05 0.05 0.04 0.03 0.02 0.03 0.01 0.00 0.00 0.00 0.01 0.01 0.01 0.02 0.03 0.02 0.02 0.01 0.01 0.01 0.01 0.02 0.04 0.05 0.04 0.03 0.04 0.05 0.04 0.05 0.05 0.05 0.05 0.04 0.03 0.03
0.02 0.02 0.03 0.02 0.01 0.01 0.02 0.02 0.02 0.03 0.02 0.02 0.01 0.02 0.02 0.01 0.01 0.01 0.01 0.01 0.01 0.02 0.03 0.02 0.02 0.02 0.01 0.01 0.01 0.01 0.03 0.05 0.06 0.05 0.04 0.06 0.06 0.05 0.05 0.05 0.05 0.05 0.04 0.04
0.05 0.04 0.02 0.01 0.01 0.02 0.02 0.03 0.01 0.02 0.02 0.02 0.02 0.01 0.02 0.01 0.02 0.01 0.01 0.02 0.02 0.03 0.04 0.05 0.03 0.03 0.02 0.02 0.02 0.01 0.02 0.02 0.03 0.06 0.05 0.06 0.05 0.04 0.05 0.05 0.05 0.05 0.06 0.04
0.07 0.05 0.02 0.02 0.04 0.04 0.04 0.05 0.01 0.01 0.01 0.02 0.05 0.07 0.04 0.02 0.02 0.02 0.01 0.01 0.02 0.04 0.06 0.07 0.06 0.05 0.04 0.05 0.04 0.02 0.02 0.02 0.02 0.03 0.05 0.04 0.04 0.04 0.04 0.04 0.03 0.05 0.05 0.06
0.07 0.05 0.03 0.03 0.04 0.04 0.06 0.07 0.02 0.01 0.01 0.02 0.05 0.06 0.03 0.01 0.01 0.03 0.02 0.01 0.02 0.03 0.05 0.05 0.04 0.04 0.05 0.09 0.10 0.06 0.05 0.04 0.03 0.03 0.04 0.05 0.05 0.04 0.03 0.03 0.03 0.03 0.04 0.04
0.05 0.05 0.04 0.02 0.02 0.04 0.05 0.03 0.01 0.01 0.01 0.02 0.02 0.01 0.01 0.00 0.01 0.02 0.02 0.01 0.01 0.03 0.04 0.03 0.03 0.03 0.04 0.07 0.15 0.14 0.09 0.05 0.04 0.04 0.04 0.04 0.04 0.03 0.03 0.03 0.02 0.02 0.03 0.03
0.04 0.05 0.04 0.01 0.02 0.02 0.01 0.01 0.01 0.01 0.01 0.01 0.01 0.01 0.01 0.01 0.02 0.02 0.02 0.02 0.02 0.03 0.04 0.03 0.03 0.03 0.04 0.05 0.06 0.09 0.14 0.12 0.07 0.04 0.04 0.05 0.05 0.04 0.03 0.03 0.03 0.02 0.02 0.02
0.04 0.03 0.02 0.01 0.01 0.01 0.01 0.01 0.01 0.01 0.01 0.01 0.01 0.01 0.02 0.02 0.02 0.03 0.02 0.02 0.03 0.05 0.06 0.04 0.03 0.03 0.02 0.03 0.04 0.05 0.06 0.07 0.07 0.05 0.04 0.04 0.04 0.04 0.04 0.03 0.03 0.03 0.03 0.03
0.03 0.03 0.02 0.01 0.01 0.01 0.01 0.01 0.00 0.00 0.01 0.01 0.01 0.01 0.01 0.01 0.02 0.02 0.03 0.03 0.05 0.06 0.08 0.06 0.05 0.04 0.03 0.02 0.03 0.04 0.04 0.05 0.05 0.04 0.03 0.03 0.03 0.03 0.03 0.03 0.03 0.03 0.03 0.03
0.05 0.04 0.03 0.01 0.01 0.01 0.01 0.01 0.00 0.00 0.01 0.01 0.01 0.01 0.01 0.02 0.02 0.02 0.03 0.04 0.06 0.07 0.08 0.07 0.06 0.05 0.03 0.02 0.03 0.05 0.05 0.05 0.06 0.04 0.03 0.03 0.03 0.03 0.02 0.02 0.02 0.02 0.04 0.04
0.02 0.02 0.02 0.01 0.01 0.01 0.01 0.01 0.01 0.01 0.01 0.01 0.01 0.01 0.03 0.04 0.04 0.03 0.03 0.04 0.04 0.03 0.03 0.03 0.03 0.03 0.02 0.02 0.03 0.04 0.05 0.07 0.06 0.06 0.05 0.04 0.03 0.03 0.04 0.02 0.02 0.03 0.04 0.05
0.01 0.01 0.01 0.01 0.01 0.02 0.02 0.02 0.01 0.01 0.01 0.01 0.01 0.02 0.03 0.05 0.04 0.04 0.03 0.03 0.03 0.02 0.02 0.02 0.02 0.02 0.02 0.03 0.03 0.03 0.04 0.05 0.06 0.07 0.06 0.05 0.04 0.04 0.05 0.06 0.04 0.03 0.03 0.03
0.03 0.01 0.01 0.01 0.03 0.02 0.01 0.01 0.01 0.01 0.01 0.01 0.01 0.01 0.02 0.03 0.04 0.04 0.04 0.04 0.04 0.03 0.02 0.02 0.03 0.03 0.03 0.03 0.04 0.06 0.07 0.07 0.05 0.04 0.03 0.03 0.03 0.04 0.05 0.06 0.06 0.04 0.03 0.03
0.03 0.01 0.01 0.02 0.01 0.01 0.01 0.01 0.01 0.02 0.01 0.01 0.01 0.02 0.03 0.03 0.04 0.05 0.05 0.06 0.05 0.05 0.04 0.04 0.04 0.03 0.02 0.02 0.02 0.03 0.05 0.06 0.04 0.03 0.03 0.02 0.02 0.03 0.04 0.04 0.04 0.04 0.05 0.04
0.01 0.01 0.02 0.02 0.02 0.02 0.01 0.01 0.01 0.02 0.02 0.02 0.02 0.02 0.03 0.04 0.05 0.07 0.07 0.05 0.04 0.03 0.03 0.03 0.02 0.02 0.01 0.01 0.02 0.02 0.03 0.04 0.04 0.03 0.04 0.04 0.03 0.02 0.02 0.02 0.02 0.03 0.04 0.05
0.01 0.01 0.03 0.03 0.02 0.02 0.01 0.01 0.02 0.02 0.02 0.02 0.02 0.02 0.02 0.04 0.06 0.07 0.06 0.04 0.02 0.02 0.02 0.02 0.02 0.01 0.01 0.01 0.01 0.01 0.02 0.02 0.03 0.03 0.04 0.04 0.03 0.03 0.02 0.02 0.01 0.01 0.02 0.03
0.01 0.01 0.01 0.01 0.02 0.02 0.02 0.01 0.02 0.02 0.02 0.02 0.01 0.01 0.01 0.03 0.05 0.06 0.06 0.03 0.03 0.02 0.02 0.02 0.02 0.02 0.02 0.02 0.02 0.02 0.02 0.01 0.02 0.02 0.02 0.03 0.03 0.02 0.03 0.02 0.01 0.01 0.01 0.03
0.00 0.01 0.01 0.01 0.01 0.01 0.01 0.01 0.01 0.02 0.01 0.01 0.02 0.02 0.02 0.04 0.04 0.04 0.04 0.03 0.02 0.02 0.01 0.01 0.01 0.01 0.02 0.02 0.02 0.02 0.02 0.02 0.02 0.02 0.02 0.03 0.03 0.03 0.03 0.03 0.02 0.02 0.02 0.03
0.00 0.01 0.01 0.01 0.01 0.01 0.01 0.01 0.01 0.01 0.01 0.01 0.02 0.02 0.03 0.03 0.04 0.04 0.05 0.04 0.02 0.01 0.01 0.01 0.01 0.02 0.02 0.02 0.02 0.02 0.02 0.02 0.02 0.02 0.03 0.03 0.04 0.04 0.04 0.04 0.04 0.03 0.03 0.04
0.00 0.01 0.01 0.01 0.01 0.02 0.01 0.01 0.01 0.02 0.02 0.02 0.02 0.03 0.03 0.03 0.03 0.04 0.03 0.03 0.02 0.01 0.01 0.01 0.01 0.01 0.02 0.02 0.01 0.01 0.02 0.02 0.03 0.03 0.04 0.04 0.05 0.05 0.05 0.04 0.04 0.04 0.04 0.06
0.01 0.01 0.01 0.01 0.01 0.02 0.02 0.01 0.02 0.03 0.03 0.03 0.02 0.02 0.02 0.03 0.02 0.03 0.04 0.02 0.02 0.02 0.01 0.01 0.01 0.01 0.02 0.01 0.01 0.01 0.02 0.03 0.03 0.04 0.04 0.04 0.04 0.05 0.05 0.04 0.04 0.04 0.06 0.07
0.01 0.01 0.01 0.01 0.01 0.02 0.03 0.02 0.02 0.03 0.03 0.03 0.02 0.02 0.03 0.03 0.02 0.02 0.03 0.03 0.03 0.03 0.02 0.02 0.02 0.02 0.02 0.01 0.01 0.02 0.02 0.02 0.03 0.03 0.03 0.03 0.04 0.04 0.05 0.05 0.05 0.06 0.07 0.07
0.01 0.01 0.01 0.01 0.01 0.02 0.02 0.02 0.02 0.03 0.03 0.03 0.02 0.02 0.02 0.03 0.02 0.02 0.02 0.02 0.03 0.02 0.02 0.02 0.02 0.02 0.02 0.02 0.02 0.02 0.02 0.03 0.02 0.03 0.03 0.03 0.03 0.04 0.04 0.04 0.05 0.06 0.07 0.06
0.01 0.02 0.02 0.02 0.02 0.02 0.02 0.02 0.02 0.02 0.02 0.02 0.02 0.02 0.03 0.03 0.03 0.02 0.02 0.02 0.02 0.02 0.02 0.02 0.02 0.02 0.02 0.03 0.03 0.03 0.03 0.04 0.04 0.03 0.03 0.03 0.04 0.04 0.04 0.04 0.04 0.05 0.06 0.05
0.01 0.02 0.02 0.02 0.01 0.01 0.02 0.03 0.03 0.02 0.01 0.01 0.02 0.02 0.02 0.03 0.03 0.03 0.02 0.01 0.01 0.02 0.02 0.02 0.02 0.02 0.03 0.03 0.03 0.03 0.03 0.03 0.04 0.04 0.04 0.03 0.03 0.04 0.04 0.04 0.04 0.04 0.05 0.05
MSLP
1007.94 1007.43 1006.85 1006.24 1005.65 1005.12 1004.68 1004.33 1004.08 1003.90 1003.79 1003.73 1003.71 1003.70 1003.71 1003.73 1003.75 1003.77 1003.77 1003.75 1003.72 1003.66 1003.59 1003.52 1003.46 1003.43 1003.45 1003.53 1003.68 1003.89 1004.14 1004.43 1004.72 1005.00 1005.25 1005.43 1005.54 1005.57 1005.52 1005.39 1005.20 1004.96 1004.70 1004.44
1007.93 1007.46 1006.88 1006.25 1005.61 1005.02 1004.52 1004.14 1003.89 1003.77 1003.76 1003.83 1003.97 1004.14 1004.31 1004.46 1004.58 1004.65 1004.66 1004.61 1004.51 1004.37 1004.21 1004.03 1003.86 1003.72 1003.63 1003.59 1003.62 1003.71 1003.86 1004.05 1004.28 1004.51 1004.75 1004.95 1005.11 1005.20 1005.22 1005.17 1005.03 1004.82 1004.56 1004.27
1007.76 1007.38 1006.89 1006.31 1005.70 1005.12 1004.63 1004.25 1004.02 1003.93 1003.97 1004.13 1004.37 1004.64 1004.91 1005.15 1005.33 1005.43 1005.45 1005.39 1005.25 1005.05 1004.81 1004.55 1004.30 1004.07 1003.87 1003.72 1003.63 1003.61 1003.64 1003.73 1003.87 1004.04 1004.24 1004.43 1004.60 1004.73 1004.80 1004.78 1004.67 1004.48 1004.21 1003.89
1007.56 1007.31 1006.94 1006.48 1005.97 1005.47 1005.02 1004.67 1004.46 1004.38 1004.44 1004.62 1004.88 1005.18 1005.48 1005.74 1005.93 1006.03 1006.04 1005.95 1005.77 1005.53 1005.24 1004.93 1004.62 1004.32 1004.04 1003.81 1003.63 1003.51 1003.44 1003.44 1003.50 1003.60 1003.74 1003.90 1004.06 1004.19 1004.26 1004.25 1004.16 1003.96 1003.68 1003.33
1007.47 1007.35 1007.13 1006.82 1006.44 1006.04 1005.66 1005.35 1005.14 1005.05 1005.08 1005.21 1005.43 1005.67 1005.92 1006.13 1006.28 1006.33 1006.30 1006.16 1005.95 1005.68 1005.36 1005.02 1004.67 1004.34 1004.03 1003.76 1003.53 1003.35 1003.23 1003.16 1003.15 1003.20 1003.29 1003.40 1003.53 1003.63 1003.68 1003.66 1003.56 1003.35 1003.05 1002.69
1007.56 1007.57 1007.48 1007.31 1007.06 1006.76 1006.44 1006.16 1005.94 1005.79 1005.74 1005.78 1005.87 1006.00 1006.14 1006.24 1006.28 1006.25 1006.13 1005.94 1005.69 1005.39 1005.05 1004.71 1004.37 1004.06 1003.76 1003.50 1003.28 1003.09 1002.96 1002.87 1002.83 1002.84 1002.90 1002.98 1003.06 1003.13 1003.16 1003.11 1002.98 1002.76 1002.46 1002.09
1007.87 1007.96 1007.97 1007.90 1007.74 1007.51 1007.23 1006.94 1006.67 1006.44 1006.26 1006.15 1006.08 1006.04 1006.01 1005.95 1005.86 1005.71 1005.51 1005.26 1004.96 1004.64 1004.32 1004.00 1003.71 1003.44 1003.21 1003.01 1002.85 1002.72 1002.62 1002.56 1002.53 1002.55 1002.59 1002.65 1002.70 1002.74 1002.74 1002.67 1002.53 1002.31 1002.00 1001.65
1008.36 1008.47 1008.53 1008.50 1008.38 1008.17 1007.87 1007.53 1007.17 1006.82 1006.49 1006.19 1005.93 1005.70 1005.48 1005.26 1005.02 1004.75 1004.46 1004.15 1003.83 1003.51 1003.22 1002.96 1002.74 1002.56 1002.43 1002.33 1002.27 1002.23 1002.21 1002.22 1002.24 1002.29 1002.34 1002.40 1002.44 1002.47 1002.45 1002.37 1002.23 1002.02 1001.75 1001.43
1008.93 1009.03 1009.07 1009.03 1008.89 1008.63 1008.27 1007.83 1007.34 1006.83 1006.33 1005.85 1005.40 1004.98 1004.58 1004.20 1003.83 1003.47 1003.11 1002.76 1002.44 1002.15 1001.91 1001.72 1001.60 1001.53 1001.51 1001.54 1001.59 1001.67 1001.75 1001.84 1001.94 1002.02 1002.11 1002.18 1002.24 1002.26 1002.24 1002.18 1002.06 1001.88 1001.65 1001.40
1009.52 1009.55 1009.53 1009.42 1009.19 1008.83 1008.36 1007.79 1007.15 1006.48 1005.80 1005.15 1004.52 1003.95 1003.41 1002.91 1002.45 1002.03 1001.64 1001.29 1001.00 1000.76 1000.59 1000.49 1000.46 1000.50 1000.60 1000.74 1000.90 1001.08 1001.26 1001.43 1001.58 1001.72 1001.83 1001.93 1002.00 1002.03 1002.03 1001.99 1001.91 1001.79 1001.63 1001.45
1010.05 1009.99 1009.87 1009.65 1009.29 1008.79 1008.18 1007.46 1006.66 1005.84 1005.01 1004.21 1003.46 1002.77 1002.15 1001.60 1001.11 1000.67 1000.30 999.99 999.75 999.58 999.48 999.47 999.52 999.65 999.83 1000.05 1000.28 1000.53 1000.76 1000.98 1001.17 1001.33 1001.47 1001.57 1001.65 1001.71 1001.73 1001.73 1001.70 1001.64 1001.56 1001.46
1010.47 1010.32 1010.08 1009.72 1009.22 1008.58 1007.81 1006.94 1006.01 1005.06 1004.12 1003.23 1002.42 1001.68 1001.04 1000.49 1000.02 999.63 999.32 999.08 998.91 998.81 998.79 998.84 998.95 999.12 999.33 999.57 999.83 1000.08 1000.31 1000.53 1000.71 1000.86 1000.98 1001.09 1001.17 1001.23 1001.28 1001.32 1001.34 1001.35 1001.34 1001.33
1010.79 1010.55 1010.20 1009.71 1009.07 1008.29 1007.39 1006.41 1005.38 1004.35 1003.36 1002.43 1001.61 1000.89 1000.29 999.79 999.40 999.09 998.86 998.70 998.61 998.58 998.61 998.68 998.81 998.98 999.17 999.38 999.59 999.79 999.97 1000.12 1000.25 1000.36 1000.44 1000.52 1000.58 1000.64 1000.71 1000.78 1000.84 1000.91 1000.98 1001.03
1011.01 1010.70 1010.25 1009.66 1008.91 1008.03 1007.05 1006.00 1004.92 1003.87 1002.88 1001.98 1001.20 1000.55 1000.02 999.62 999.32 999.11 998.97 998.90 998.87 998.89 998.94 999.01 999.11 999.23 999.35 999.48 999.59 999.70 999.78 999.84 999.88 999.92 999.94 999.97 1000.00 1000.05 1000.12 1000.21 1000.31 1000.42 1000.53 1000.64
1011.14 1010.78 1010.28 1009.62 1008.82 1007.89 1006.87 1005.81 1004.75 1003.73 1002.79 1001.96 1001.26 1000.70 1000.28 999.97 999.77 999.66 999.60 999.59 999.61 999.64 999.68 999.72 999.77 999.80 999.83 999.84 999.84 999.83 999.79 999.75 999.70 999.64 999.60 999.57 999.58 999.61 999.67 999.76 999.88 1000.01 1000.16 1000.30
1011.20 1010.82 1010.29 1009.62 1008.80 1007.89 1006.90 1005.88 1004.88 1003.94 1003.08 1002.35 1001.76 1001.30 1000.97 1000.76 1000.64 1000.58 1000.58 1000.60 1000.63 1000.66 1000.67 1000.66 1000.63 1000.58 1000.50 1000.41 1000.30 1000.17 1000.03 999.89 999.76 999.64 999.54 999.48 999.45 999.46 999.51 999.60 999.72 999.86 1000.01 1000.15
1011.18 1010.81 1010.30 1009.65 1008.88 1008.02 1007.10 1006.18 1005.28 1004.44 1003.70 1003.07 1002.57 1002.20 1001.94 1001.78 1001.70 1001.68 1001.69 1001.71 1001.72 1001.71 1001.68 1001.62 1001.52 1001.40 1001.24 1001.07 1000.88 1000.68 1000.48 1000.29 1000.11 999.96 999.84 999.75 999.71 999.71 999.75 999.83 999.94 1000.06 1000.20 1000.33
1011.11 1010.76 1010.29 1009.70 1009.01 1008.25 1007.44 1006.63 1005.85 1005.13 1004.49 1003.95 1003.52 1003.20 1002.98 1002.83 1002.75 1002.72 1002.70 1002.68 1002.66 1002.61 1002.53 1002.42 1002.28 1002.12 1001.93 1001.73 1001.51 1001.30 1001.09 1000.90 1000.73 1000.58 1000.47 1000.40 1000.37 1000.37 1000.41 1000.47 1000.56 1000.66 1000.76 1000.87
1010.99 1010.68 1010.27 1009.77 1009.18 1008.52 1007.84 1007.15 1006.48 1005.86 1005.31 1004.83 1004.44 1004.13 1003.89 1003.72 1003.59 1003.50 1003.42 1003.35 1003.27 1003.18 1003.07 1002.94 1002.79 1002.63 1002.46 1002.28 1002.10 1001.93 1001.77 1001.63 1001.52 1001.43 1001.36 1001.33 1001.33 1001.35 1001.39 1001.44 1001.51 1001.58 1001.64 1001.71
1010.86 1010.60 1010.26 1009.84 1009.35 1008.81 1008.24 1007.66 1007.08 1006.54 1006.03 1005.58 1005.18 1004.84 1004.55 1004.31 1004.10 1003.93 1003.78 1003.64 1003.51 1003.38 1003.26 1003.14 1003.01 1002.90 1002.78 1002.67 1002.58 1002.50 1002.43 1002.38 1002.35 1002.34 1002.36 1002.38 1002.42 1002.47 1002.52 1002.57 1002.62 1002.66 1002.68 1002.71
1010.76 1010.55 1010.27 1009.93 1009.53 1009.08 1008.60 1008.10 1007.59 1007.08 1006.59 1006.12 1005.69 1005.29 1004.92 1004.59 1004.29 1004.03 1003.79 1003.59 1003.42 1003.28 1003.16 1003.06 1002.99 1002.94 1002.92 1002.91 1002.92 1002.94 1002.99 1003.04 1003.12 1003.20 1003.29 1003.38 1003.47 1003.55 1003.62 1003.67 1003.71 1003.72 1003.72 1003.72
1010.72 1010.55 1010.33 1010.05 1009.71 1009.33 1008.91 1008.45 1007.97 1007.48 1006.98 1006.47 1005.98 1005.51 1005.05 1004.63 1004.24 1003.89 1003.59 1003.34 1003.14 1002.99 1002.90 1002.84 1002.84 1002.87 1002.93 1003.02 1003.13 1003.26 1003.41 1003.56 1003.72 1003.88 1004.04 1004.19 1004.32 1004.44 1004.53 1004.59 1004.63 1004.64 1004.63 1004.62
1010.75 1010.61 1010.42 1010.18 1009.89 1009.55 1009.16 1008.72 1008.25 1007.75 1007.22 1006.68 1006.13 1005.58 1005.05 1004.55 1004.09 1003.68 1003.34 1003.06 1002.85 1002.71 1002.64 1002.63 1002.68 1002.78 1002.92 1003.09 1003.29 1003.50 1003.71 1003.93 1004.15 1004.37 1004.57 1004.76 1004.93 1005.07 1005.19 1005.28 1005.33 1005.36 1005.37 1005.36
1010.82 1010.69 1010.52 1010.31 1010.04 1009.71 1009.34 1008.91 1008.44 1007.93 1007.38 1006.80 1006.21 1005.62 1005.04 1004.50 1004.00 1003.56 1003.19 1002.90 1002.70 1002.58 1002.54 1002.57 1002.67 1002.82 1003.01 1003.22 1003.46 1003.71 1003.96 1004.20 1004.45 1004.68 1004.91 1005.12 1005.31 1005.48 1005.63 1005.75 1005.85 1005.91 1005.96 1005.99
1010.87 1010.75 1010.59 1010.38 1010.12 1009.81 1009.45 1009.03 1008.56 1008.05 1007.50 1006.92 1006.32 1005.72 1005.14 1004.58 1004.08 1003.64 1003.28 1003.01 1002.83 1002.73 1002.72 1002.77 1002.90 1003.06 1003.27 1003.50 1003.74 1003.98 1004.23 1004.47 1004.70 1004.93 1005.16 1005.37 1005.58 1005.78 1005.96 1006.13 1006.27 1006.40 1006.50 1006.59
1010.84 1010.72 1010.56 1010.35 1010.11 1009.81 1009.47 1009.07 1008.63 1008.15 1007.62 1007.07 1006.51 1005.94 1005.39 1004.87 1004.40 1003.99 1003.66 1003.42 1003.26 1003.19 1003.20 1003.27 1003.39 1003.56 1003.76 1003.97 1004.18 1004.40 1004.61 1004.82 1005.02 1005.23 1005.44 1005.66 1005.88 1006.10 1006.32 1006.54 1006.75 1006.94 1007.12 1007.28
1010.67 1010.54 1010.38 1010.19 1009.96 1009.69 1009.39 1009.04 1008.65 1008.22 1007.77 1007.28 1006.78 1006.29 1005.80 1005.35 1004.94 1004.59 1004.31 1004.10 1003.98 1003.93 1003.95 1004.02 1004.14 1004.29 1004.46 1004.64 1004.82 1004.99 1005.16 1005.33 1005.51 1005.69 1005.88 1006.10 1006.33 1006.58 1006.84 1007.11 1007.38 1007.65 1007.90 1008.14
Thickness
5732 5742 5743 5742 5744 5749 5747 5746 5741 5746 5750 5751 5753 5754 5754 5752 5749 5749 5745 5743 5740 5735 5735 5735 5734 5734 5733 5731 5730 5729 5725 5723 5720 5719 5718 5716 5715 5713 5712 5711 5711 5709 5707 5705
5719 5734 5737 5735 5741 5743 5743 5745 5745 5745 5743 5753 5751 5749 5745 5743 5743 5738 5736 5735 5733 5730 5727 5726 5726 5726 5726 5725 5724 5722 5720 5718 5716 5714 5712 5710 5709 5708 5706 5705 5704 5703 5701 5699
5702 5722 5724 5717 5732 5735 5736 5740 5738 5732 5735 5741 5736 5735 5734 5734 5733 5729 5727 5726 5723 5721 5719 5718 5718 5719 5718 5718 5718 5716 5714 5712 5711 5709 5707 5705 5704 5702 5700 5699 5697 5695 5694 5692
5695 5700 5685 5717 5740 5738 5731 5730 5733 5731 5733 5733 5730 5729 5728 5728 5725 5720 5719 5716 5715 5713 5712 5712 5712 5712 5712 5712 5710 5708 5706 5705 5705 5704 5701 5700 5698 5695 5695 5693 5690 5688 5686 5685
5683 5682 5694 5716 5724 5724 5717 5713 5726 5724 5724 5723 5723 5719 5715 5717 5715 5712 5710 5708 5706 5706 5705 5704 5704 5704 5703 5702 5701 5700 5698 5697 5697 5697 5695 5693 5690 5688 5687 5685 5682 5681 5680 5679
5676 5671 5674 5697 5714 5721 5712 5697 5714 5715 5711 5709 5708 5696 5695 5703 5704 5702 5700 5699 5697 5697 5697 5695 5695 5696 5694 5693 5692 5691 5691 5691 5691 5691 5688 5686 5684 5682 5681 5679 5676 5675 5673 5672
5667 5666 5679 5697 5707 5709 5683 5682 5701 5705 5702 5701 5695 5691 5691 5695 5693 5692 5690 5690 5689 5688 5687 5686 5687 5686 5685 5684 5683 5684 5685 5685 5684 5683 5682 5680 5678 5676 5674 5672 5670 5668 5666 5666
5664 5658 5665 5690 5691 5682 5678 5691 5695 5694 5693 5691 5687 5686 5685 5684 5682 5681 5680 5680 5680 5678 5677 5678 5678 5677 5676 5675 5677 5678 5678 5677 5676 5676 5676 5674 5671 5669 5667 5664 5662 5660 5659 5658
5661 5659 5670 5680 5680 5682 5685 5683 5684 5685 5685 5682 5677 5676 5675 5672 5671 5670 5670 5671 5671 5670 5669 5669 5669 5669 5667 5668 5669 5670 5669 5667 5667 5668 5668 5666 5663 5661 5659 5657 5656 5654 5652 5650
5659 5662 5668 5673 5677 5677 5678 5676 5677 5677 5676 5673 5668 5667 5664 5663 5661 5661 5661 5661 5661 5661 5659 5659 5660 5660 5660 5661 5662 5661 5660 5659 5659 5659 5658 5657 5655 5654 5652 5650 5649 5647 5645 5643
5649 5656 5660 5664 5666 5667 5668 5669 5668 5667 5666 5663 5660 5657 5655 5653 5653 5653 5653 5653 5653 5652 5652 5651 5652 5652 5653 5654 5654 5652 5652 5652 5651 5651 5650 5648 5646 5644 5644 5641 5640 5638 5638 5637
5641 5649 5648 5650 5657 5659 5657 5656 5657 5656 5654 5654 5651 5649 5648 5646 5645 5645 5645 5646 5646 5646 5646 5645 5645 5645 5645 5646 5646 5645 5643 5643 5643 5643 5642 5641 5639 5635 5633 5632 5630 5629 5628 5628
5642 5647 5646 5648 5651 5650 5648 5648 5649 5648 5646 5644 5643 5643 5641 5638 5638 5639 5639 5639 5639 5639 5640 5639 5638 5638 5638 5638 5637 5636 5635 5635 5635 5635 5634 5634 5633 5630 5626 5623 5622 5621 5620 5619
5639 5639 5636 5638 5640 5641 5641 5641 5641 5640 5639 5638 5636 5635 5634 5632 5632 5631 5631 5632 5632 5632 5632 5632 5631 5630 5630 5630 5629 5628 5627 5626 5627 5627 5628 5627 5627 5625 5623 5620 5617 5614 5612 5611
5631 5631 5629 5631 5633 5633 5634 5633 5631 5629 5628 5627 5627 5626 5625 5624 5623 5623 5625 5625 5625 5624 5624 5624 5623 5621 5622 5621 5620 5619 5619 5619 5619 5619 5620 5620 5620 5619 5618 5616 5614 5611 5609 5605
5622 5624 5624 5622 5622 5624 5624 5623 5621 5620 5619 5618 5617 5617 5617 5617 5617 5617 5617 5618 5616 5615 5615 5614 5613 5613 5614 5612 5611 5611 5611 5610 5610 5612 5613 5613 5614 5613 5612 5611 5609 5607 5604 5603
5612 5611 5612 5611 5613 5614 5616 5615 5614 5612 5612 5610 5609 5610 5609 5609 5609 5609 5609 5610 5609 5608 5608 5607 5605 5606 5606 5605 5604 5605 5605 5604 5602 5604 5606 5606 5606 5606 5606 5605 5603 5602 5600 5598
5609 5608 5607 5606 5606 5606 5607 5607 5606 5605 5604 5604 5604 5603 5601 5600 5600 5600 5601 5602 5601 5600 5600 5599 5598 5597 5598 5598 5597 5597 5598 5598 5598 5598 5598 5598 5599 5599 5599 5598 5597 5596 5595 5593
5602 5601 5601 5600 5600 5599 5599 5599 5598 5598 5597 5597 5596 5594 5593 5593 5594 5594 5594 5594 5592 5591 5591 5591 5588 5589 5590 5590 5588 5589 5590 5591 5591 5591 5591 5589 5590 5592 5592 5592 5591 5590 5589 5588
5594 5594 5593 5593 5593 5592 5591 5591 5592 5591 5590 5589 5588 5587 5586 5587 5588 5587 5586 5585 5585 5585 5585 5583 5582 5582 5583 5582 5579 5582 5583 5583 5583 5583 5583 5583 5584 5584 5585 5585 5585 5584 5582 5581
5586 5586 5585 5585 5585 5586 5586 5585 5584 5583 5583 5582 5580 5579 5580 5580 5581 5580 5578 5577 5578 5578 5578 5576 5575 5575 5575 5574 5572 5576 5577 5577 5577 5576 5576 5576 5576 5577 5577 5577 5577 5576 5575 5574
5578 5578 5578 5578 5579 5579 5580 5579 5579 5578 5577 5577 5576 5575 5574 5574 5574 5574 5574 5573 5573 5571 5571 5572 5570 5568 5567 5566 5569 5570 5571 5571 5571 5570 5570 5569 5569 5569 5569 5570 5569 5569 5568 5567
5570 5571 5571 5570 5571 5572 5573 5573 5573 5573 5572 5572 5572 5571 5571 5570 5570 5569 5567 5568 5568 5564 5565 5565 5564 5561 5559 5562 5564 5565 5566 5565 5565 5564 5563 5563 5562 5562 5562 5562 5562 5561 5560 5559
5564 5564 5564 5565 5565 5565 5565 5566 5567 5567 5567 5568 5568 5568 5567 5566 5565 5566 5564 5561 5560 5558 5560 5558 5556 5555 5554 5558 5559 5560 5560 5560 5559 5559 5558 5558 5557 5556 5555 5554 5554 5554 5553 5552
5557 5558 5558 5558 5558 5559 5560 5561 5561 5562 5563 5564 5565 5564 5564 5562 5561 5561 5559 5557 5554 5553 5554 5552 5550 5550 5552 5554 5555 5555 5556 5555 5555 5554 5553 5552 5551 5549 5548 5547 5546 5546 5545 5544
5551 5552 5553 5553 5554 5555 5557 5558 5558 5559 5559 5560 5560 5561 5560 5559 5558 5556 5554 5553 5552 5549 5550 5549 5548 5546 5549 5550 5550 5550 5550 5549 5548 5548 5547 5546 5544 5543 5542 5540 5539 5538 5537 5536
5547 5548 5548 5550 5552 5554 5554 5554 5554 5554 5555 5555 5554 5555 5555 5554 5553 5553 5551 5550 5549 5548 5548 5547 5547 5546 5546 5546 5546 5544 5543 5543 5542 5542 5540 5539 5537 5536 5534 5533 5532 5531 5529 5528